C5773 Weather Reports


time (UTC)temp
C
wind
direction
speed
KPH
gust
KPH
rain 1hr
cm
rain 24hr
cm
rain mn
cm
humidity
%
barometer
mb
20260906162018 22 186 4.8 11.3 0.00 0.00 0.00 89 1016.1
20260906160903 22 188 4.8 9.7 0.00 0.00 0.00 92 1016.4
20260906160003 22 160 3.2 11.3 0.00 0.00 0.00 93 1016.2
20260906155403 22 199 3.2 6.4 0.00 0.00 0.00 95 1016.3
20260906154503 21 178 4.8 16.1 0.00 0.00 0.00 96 1016.1
20260906153603 21 186 4.8 14.5 0.00 0.00 0.00 97 1016.1
20260906152703 21 190 4.8 9.7 0.00 0.00 0.00 98 1016.3
20260906151803 21 192 3.2 6.4 0.00 0.00 0.00 99 1016.5
20260906150903 21 158 3.2 14.5 0.00 0.00 0.00 99 1016.5
20260906150003 20 165 3.2 9.7 0.00 0.00 0.00 100 1016.5
20260906145403 20 157 1.6 6.4 0.00 0.00 0.00 100 1016.5
20260906144716 20 128 3.2 6.4 0.00 0.00 0.00 100 1016.4
20260906143603 20 178 3.2 8.0 0.00 0.00 0.00 100 1016.4
20260906142704 20 142 3.2 6.4 0.00 0.00 0.00 100 1016.3
20260906142013 20 171 4.8 9.7 0.00 0.00 0.00 100 1016.3
20260906140903 20 184 3.2 6.4 0.00 0.00 0.00 100 1016.3
20260906140003 20 186 4.8 9.7 0.00 0.00 0.00 100 1016.3
20260906135403 20 182 4.8 9.7 0.00 0.00 0.00 100 1016.4
20260906134503 20 178 4.8 16.1 0.00 0.00 0.00 100 1016.4
20260906133603 20 187 3.2 8.0 0.00 0.00 0.00 100 1016.1
20260906132703 20 177 3.2 6.4 0.00 0.00 0.00 100 1016.0
20260906131803 20 189 1.6 11.3 0.00 0.00 0.00 100 1015.9
20260906130903 20 160 1.6 4.8 0.00 0.00 0.00 100 1015.6
20260906130003 19 126 1.6 4.8 0.00 0.00 0.00 100 1015.6
20260906125403 19 75 0.0 3.2 0.00 0.00 0.00 100 1015.5
20260906124503 19 106 0.0 1.6 0.00 0.00 0.00 100 1015.5
20260906123603 19 80 0.0 3.2 0.00 0.00 0.00 100 1015.4
20260906122912 18 177 0.0 1.6 0.00 0.00 0.00 99 1015.4
20260906121803 18 196 0.0 1.6 0.00 0.00 0.00 99 1015.5
20260906120903 18 161 0.0 1.6 0.00 0.00 0.00 99 1015.4
20260906120003 18 22 0.0 1.6 0.00 0.00 0.00 99 1015.4
20260906115403 18 41 0.0 1.6 0.00 0.00 0.00 99 1015.4
20260906114713 18 63 0.0 1.6 0.00 0.00 0.00 99 1015.4
20260906113816 18 76 0.0 1.6 0.00 0.00 0.00 99 1015.2
20260906112913 18 63 0.0 1.6 0.00 0.00 0.00 99 1015.2
20260906112015 18 0 0.0 0.0 0.00 0.00 0.00 98 1015.1
20260906110903 18 122 0.0 1.6 0.00 0.00 0.00 99 1015.1
20260906110003 18 0 0.0 0.0 0.00 0.00 0.00 98 1015.0
20260906105616 18 127 0.0 0.0 0.00 0.00 0.00 98 1015.0
20260906104714 18 0 0.0 0.0 0.00 0.00 0.00 98 1014.9
20260906103603 18 0 0.0 0.0 0.00 0.00 0.00 98 1014.9
20260906102703 18 0 0.0 0.0 0.00 0.00 0.00 98 1014.8
20260906101803 18 0 0.0 0.0 0.00 0.00 0.00 98 1014.9
20260906101113 18 0 0.0 0.0 0.00 0.00 0.00 98 1014.8
20260906100004 18 0 0.0 0.0 0.00 0.00 0.00 97 1014.8
20260906095403 18 124 0.0 0.0 0.00 0.00 0.00 97 1014.8
20260906094504 19 119 0.0 0.0 0.00 0.00 0.00 97 1014.5
20260906093603 19 130 0.0 3.2 0.00 0.00 0.00 97 1014.4
20260906092703 19 126 0.0 1.6 0.00 0.00 0.00 97 1014.1
20260906091803 19 340 0.0 1.6 0.00 0.00 0.00 97 1013.9
20260906090903 19 330 0.0 1.6 0.00 0.00 0.00 97 1013.9
20260906090004 19 186 0.0 1.6 0.00 0.00 0.00 97 1014.1
20260906085403 20 190 0.0 1.6 0.00 0.00 0.00 96 1014.1
20260906084715 20 229 0.0 1.6 0.00 0.00 0.00 97 1014.1
20260906083603 20 198 0.0 1.6 0.00 0.00 0.00 97 1013.9
20260906082703 20 266 0.0 1.6 0.00 0.00 0.00 96 1013.8
20260906081803 20 181 0.0 3.2 0.00 0.00 0.00 96 1013.9
20260906080903 20 178 0.0 3.2 0.00 0.00 0.00 96 1013.8
20260906080003 20 210 1.6 3.2 0.00 0.00 0.00 96 1013.8
20260906075403 20 182 1.6 4.8 0.00 0.00 0.00 96 1013.8
20260906074716 20 222 1.6 4.8 0.00 0.00 0.00 96 1013.9
20260906073813 20 335 1.6 4.8 0.00 0.00 0.00 96 1014.0
20260906072703 20 13 0.0 3.2 0.00 0.00 0.00 96 1014.2
20260906071803 20 168 0.0 1.6 0.00 0.00 0.00 96 1014.2
20260906070903 20 190 0.0 1.6 0.00 0.00 0.00 96 1014.3
20260906070003 20 0 0.0 0.0 0.00 0.00 0.00 96 1014.3
20260906065403 20 0 0.0 0.0 0.00 0.00 0.00 95 1014.3
20260906064503 20 176 0.0 1.6 0.00 0.00 0.00 95 1014.3
20260906063603 20 179 0.0 1.6 0.00 0.00 0.00 95 1014.3
20260906062703 20 179 0.0 0.0 0.00 0.00 0.00 95 1014.4
20260906061803 20 179 0.0 1.6 0.00 0.00 0.00 95 1014.5
20260906061116 21 188 0.0 1.6 0.00 0.00 0.00 95 1014.3
20260906060213 20 170 0.0 1.6 0.00 0.00 0.00 94 1014.3
20260906055403 20 180 0.0 3.2 0.00 0.00 0.00 94 1014.4
20260906054503 20 171 0.0 3.2 0.00 0.00 0.00 94 1014.5
20260906053603 20 0 0.0 0.0 0.00 0.00 0.00 93 1014.6
20260906052703 21 173 0.0 1.6 0.00 0.00 0.00 93 1014.6
20260906051803 21 60 0.0 1.6 0.00 0.00 0.00 93 1014.5
20260906050903 21 42 0.0 1.6 0.00 0.00 0.00 92 1014.6
20260906050006 21 42 0.0 0.0 0.00 0.00 0.00 92 1014.7
20260906045403 21 42 0.0 1.6 0.00 0.00 0.00 92 1014.7
20260906044503 21 42 0.0 0.0 0.00 0.00 0.00 92 1014.8
20260906043603 21 0 0.0 0.0 0.00 0.00 0.00 92 1014.8
20260906042703 21 42 0.0 0.0 0.00 0.00 0.00 92 1014.8
20260906042014 21 42 0.0 1.6 0.00 0.00 0.00 92 1014.8
20260906041117 21 45 0.0 3.2 0.00 0.00 0.00 92 1014.8
20260906040003 21 52 0.0 3.2 0.00 0.00 0.00 92 1014.8
20260906035403 21 90 0.0 1.6 0.00 0.00 0.00 92 1014.8
20260906034713 21 0 0.0 0.0 0.00 0.00 0.00 91 1014.6
20260906033603 21 0 0.0 0.0 0.00 0.00 0.00 91 1014.6
20260906032703 21 0 0.0 0.0 0.00 0.00 0.00 90 1014.5
20260906032015 21 0 0.0 0.0 0.00 0.00 0.00 90 1014.6
20260906031113 21 0 0.0 0.0 0.00 0.00 0.00 90 1014.7
20260906030003 21 0 0.0 0.0 0.00 0.00 0.00 90 1014.8
20260906025403 21 0 0.0 0.0 0.00 0.00 0.00 89 1015.0
20260906024503 21 0 0.0 0.0 0.00 0.00 0.00 89 1014.8
20260906023603 21 0 0.0 0.0 0.00 0.00 0.00 89 1014.8
20260906022703 21 0 0.0 0.0 0.00 0.00 0.00 88 1014.6
20260906021804 22 142 0.0 1.6 0.00 0.00 0.00 87 1014.4
20260906020903 22 142 0.0 1.6 0.00 0.00 0.00 86 1014.2
20260906020003 22 142 0.0 1.6 0.00 0.00 0.00 86 1013.9
20260906015403 22 214 0.0 0.0 0.00 0.00 0.00 85 1013.7
20260906014503 22 0 0.0 0.0 0.00 0.00 0.00 84 1013.5
20260906013603 22 283 0.0 0.0 0.00 0.00 0.00 83 1013.3
20260906012703 23 193 1.6 1.6 0.00 0.00 0.00 83 1013.2
20260906011803 23 168 1.6 3.2 0.00 0.00 0.00 82 1012.9
20260906010903 23 172 1.6 3.2 0.00 0.00 0.00 81 1012.9
20260906010216 23 181 1.6 4.8 0.00 0.00 0.00 81 1012.9
20260906005403 23 176 1.6 8.0 0.00 0.00 0.00 80 1012.7
20260906004503 24 169 1.6 6.4 0.00 0.00 0.00 79 1012.7
20260906003812 24 178 1.6 6.4 0.00 0.00 0.00 78 1012.7
20260906002703 24 191 1.6 8.0 0.00 0.00 0.00 76 1012.7
20260906001803 25 179 3.2 4.8 0.00 0.00 0.00 75 1012.6
20260906000903 25 194 3.2 9.7 0.00 0.00 0.00 74 1012.4
20260906000219 25 177 1.6 8.0 0.00 0.00 0.00 73 1012.4
20260905235613 25 167 1.6 8.0 0.00 0.00 0.00 72 1012.4
20260905234503 26 166 4.8 17.7 0.00 0.00 0.00 71 1012.2
20260905233813 26 167 3.2 11.3 0.00 0.00 0.00 71 1012.4
20260905232703 26 179 3.2 8.0 0.00 0.00 0.00 71 1012.4
20260905231803 26 165 3.2 8.0 0.00 0.00 0.00 70 1012.1
20260905230903 26 143 1.6 8.0 0.00 0.00 0.00 69 1012.0
20260905230003 26 106 3.2 6.4 0.00 0.00 0.00 69 1012.0
20260905225403 26 74 3.2 9.7 0.00 0.00 0.00 69 1012.0
20260905224503 27 117 4.8 14.5 0.00 0.00 0.00 68 1011.7
20260905223603 27 60 4.8 14.5 0.00 0.00 0.00 67 1011.6
20260905222703 27 94 4.8 16.1 0.00 0.00 0.00 66 1011.4
20260905221803 27 1 3.2 8.0 0.00 0.00 0.00 69 1011.4
20260905220903 26 62 3.2 9.7 0.00 0.00 0.00 70 1011.5
20260905220004 26 91 3.2 11.3 0.00 0.00 0.00 70 1011.7
20260905215615 26 67 3.2 11.3 0.00 0.00 0.00 70 1011.7
20260905214503 26 81 3.2 6.4 0.00 0.00 0.00 70 1011.8
20260905213603 26 72 1.6 9.7 0.00 0.00 0.00 70 1012.0
20260905212703 26 54 1.6 6.4 0.00 0.00 0.00 71 1012.0
20260905212014 26 59 3.2 8.0 0.00 0.00 0.00 70 1012.0
20260905211116 27 66 1.6 8.0 0.00 0.00 0.00 71 1012.0
20260905210004 27 64 3.2 9.7 0.00 0.00 0.00 70 1011.7
20260905205615 27 55 3.2 9.7 0.00 0.00 0.00 70 1011.8
20260905204503 27 71 3.2 9.7 0.00 0.00 0.00 70 1012.1
20260905203603 27 50 3.2 9.7 0.00 0.00 0.00 69 1012.1
20260905202912 27 54 4.8 9.7 0.00 0.00 0.00 69 1012.2
20260905201803 27 71 3.2 9.7 0.00 0.00 0.00 69 1012.4
20260905200903 27 55 3.2 9.7 0.00 0.00 0.00 69 1012.5
20260905200003 27 61 3.2 8.0 0.00 0.00 0.00 69 1012.9
20260905195403 27 53 1.6 4.8 0.00 0.00 0.00 69 1013.1
20260905194503 27 49 3.2 6.4 0.00 0.00 0.00 69 1013.2
20260905193603 27 69 4.8 11.3 0.00 0.00 0.00 71 1013.1
20260905192703 27 73 3.2 8.0 0.00 0.00 0.00 71 1013.1
20260905191803 26 57 1.6 4.8 0.00 0.00 0.00 73 1013.4
20260905190903 26 211 1.6 4.8 0.00 0.00 0.00 74 1013.6
20260905190003 26 199 3.2 8.0 0.00 0.00 0.00 74 1013.6
20260905185403 26 204 3.2 8.0 0.00 0.00 0.00 75 1013.6
20260905184504 26 203 3.2 6.4 0.00 0.00 0.00 75 1013.7
20260905183816 26 194 3.2 9.7 0.00 0.00 0.00 76 1013.6
20260905182914 26 204 3.2 8.0 0.00 0.00 0.00 75 1013.7
20260905181803 25 183 4.8 8.0 0.00 0.00 0.00 76 1013.9
20260905180903 25 181 4.8 11.3 0.00 0.00 0.00 79 1013.8
20260905180003 24 179 3.2 9.7 0.00 0.00 0.00 82 1014.0
20260905175617 24 183 3.2 8.0 0.00 0.00 0.00 82 1014.1
20260905174503 24 168 1.6 3.2 0.00 0.00 0.00 82 1014.1
20260905173603 24 144 3.2 8.0 0.00 0.00 0.00 84 1014.2
20260905172703 23 176 3.2 9.7 0.00 0.00 0.00 88 1014.5
20260905172017 23 109 1.6 6.4 0.00 0.00 0.00 90 1014.6
20260905170903 23 129 1.6 4.8 0.00 0.00 0.00 92 1014.7
20260905170003 23 167 1.6 8.0 0.00 0.00 0.00 94 1014.8
20260905165403 22 92 1.6 3.2 0.00 0.00 0.00 95 1014.8
20260905164503 22 101 3.2 6.4 0.00 0.00 0.00 96 1014.8
20260905163603 22 89 1.6 6.4 0.00 0.00 0.00 97 1014.7
20260905162703 22 48 1.6 6.4 0.00 0.00 0.00 98 1014.6